OH5GWF-1 Weather Reports


Display with metric or nautical units.
time (UTC)temp
F
wind
direction
speed
MPH
gust
MPH
rain 1hr
in
rain 24hr
in
rain mn
in
humidity
%
barometer
mb
20260904183752 46 248 0.0 0.0 0.00 0.00 0.00 85 996.5
20260904183049 46 248 0.0 0.0 0.00 0.00 0.00 85 996.5
20260904182347 47 248 0.0 0.0 0.00 0.00 0.00 85 996.5
20260904181656 47 248 0.0 0.0 0.00 0.00 0.00 85 996.5
20260904180955 47 248 0.0 0.0 0.00 0.00 0.00 85 996.6
20260904180254 48 248 0.0 0.0 0.00 0.00 0.00 85 996.6
20260904175552 48 248 0.0 0.0 0.00 0.00 0.00 85 996.6
20260904174850 48 248 0.0 0.0 0.00 0.00 0.00 85 996.6
20260904174146 48 248 0.0 0.0 0.00 0.00 0.00 85 996.7
20260904173457 48 248 0.0 0.0 0.00 0.00 0.00 85 996.6
20260904172756 49 248 0.0 0.0 0.00 0.00 0.00 85 996.7
20260904172054 49 248 0.0 1.0 0.00 0.00 0.00 85 996.8
20260904171352 49 248 0.0 1.0 0.00 0.00 0.00 84 996.9
20260904170651 50 248 0.0 0.0 0.00 0.00 0.00 84 996.8
20260904165948 50 248 0.0 0.0 0.00 0.00 0.00 84 996.8
20260904165246 51 248 0.0 0.0 0.00 0.00 0.00 84 996.8
20260904164555 51 248 0.0 0.0 0.00 0.00 0.00 84 996.9
20260904163853 52 248 0.0 0.0 0.00 0.00 0.00 83 997.0
20260904163151 52 248 0.0 0.0 0.00 0.00 0.00 83 997.0
20260904162448 52 248 0.0 0.0 0.00 0.00 0.00 82 997.1
20260904161758 53 248 0.0 0.0 0.00 0.00 0.00 81 997.1
20260904161054 53 248 0.0 0.0 0.00 0.00 0.00 81 997.0
20260904160352 53 248 0.0 0.0 0.00 0.00 0.00 80 996.9
20260904155651 53 248 0.0 0.0 0.00 0.00 0.00 80 996.9
20260904154949 53 248 0.0 0.0 0.00 0.00 0.00 80 996.9
20260904154246 54 248 0.0 0.0 0.00 0.00 0.00 79 996.8
20260904153555 54 248 0.0 0.0 0.00 0.00 0.00 78 996.9
20260904152852 54 294 0.0 0.0 0.00 0.00 0.00 77 996.8
20260904152151 55 248 0.0 0.0 0.00 0.00 0.00 77 996.9
20260904151447 55 248 0.0 0.0 0.00 0.00 0.00 76 996.8
20260904150756 55 248 0.0 0.0 0.00 0.00 0.00 76 996.8
20260904150053 55 248 0.0 0.0 0.00 0.00 0.00 76 996.9
20260904145351 55 248 0.0 0.0 0.00 0.00 0.00 75 996.9
20260904144649 56 248 0.0 0.0 0.00 0.00 0.00 75 996.8
20260904143957 56 248 1.0 2.0 0.00 0.00 0.00 74 996.8
20260904143255 56 248 1.0 3.0 0.00 0.00 0.00 73 997.0
20260904142553 57 248 1.0 2.0 0.00 0.00 0.00 72 997.0
20260904141850 57 248 1.0 3.0 0.00 0.00 0.00 73 996.9
20260904141148 57 248 1.0 2.0 0.00 0.00 0.00 73 997.1
20260904140457 57 248 2.0 3.0 0.00 0.00 0.00 74 997.1
20260904135755 58 248 1.0 3.0 0.00 0.00 0.00 72 997.1
20260904135053 59 248 1.0 3.0 0.00 0.00 0.00 71 997.2
20260904134349 60 251 3.0 3.0 0.00 0.00 0.00 71 997.3
20260904133647 61 255 0.0 3.0 0.00 0.00 0.00 71 997.3
20260904132956 62 253 1.0 3.0 0.00 0.00 0.00 69 997.3
20260904132254 64 247 1.0 3.0 0.00 0.00 0.00 69 997.4
20260904131552 61 248 2.0 3.0 0.00 0.00 0.00 73 997.5
20260904130849 60 248 2.0 0.0 0.00 0.00 0.00 72 997.5
20260904130148 62 279 3.0 5.0 0.00 0.00 0.00 70 997.5
20260904125509 63 278 3.0 5.0 0.00 0.00 0.00 67 997.6
20260904124754 64 248 0.0 2.0 0.00 0.00 0.00 66 997.6
20260904124052 63 248 1.0 6.0 0.00 0.00 0.00 70 997.6
20260904123349 62 248 2.0 5.0 0.00 0.00 0.00 72 997.7
20260904122647 62 248 3.0 5.0 0.00 0.00 0.00 72 997.6
20260904121955 62 261 3.0 7.0 0.00 0.00 0.00 69 997.5
20260904121253 63 248 1.0 2.0 0.00 0.00 0.00 70 997.5
20260904120552 63 248 0.0 1.0 0.00 0.00 0.00 70 997.6
20260904115848 62 248 0.0 0.0 0.00 0.00 0.00 71 997.5
20260904115147 61 248 0.0 0.0 0.00 0.00 0.00 70 997.7
20260904114457 62 248 1.0 3.0 0.00 0.00 0.00 67 997.5
20260904113756 64 248 3.0 5.0 0.00 0.00 0.00 63 997.6
20260904113721 64 248 1.0 5.0 0.00 0.00 0.00 63 997.5
20260904113054 67 248 1.0 2.0 0.00 0.00 0.00 59 997.6
20260904112619 70 248 0.0 0.0 0.00 0.00 0.00 56 997.6
20260904112353 71 248 1.0 1.0 0.00 0.00 0.00 61 998.0
20260904111651 71 248 1.0 1.0 0.00 0.00 0.00 61 998.0
20260904111516 71 248 1.0 1.0 0.00 0.00 0.00 61 998.0
20260904110949 69 248 1.0 2.0 0.00 0.00 0.00 63 998.0
20260904110424 65 248 2.0 0.0 0.00 0.00 0.00 67 998.0
20260904110246 65 248 2.0 0.0 0.00 0.00 0.00 67 998.0
20260904105556 65 248 3.0 5.0 0.00 0.00 0.00 66 998.1
20260904105321 65 248 0.0 3.0 0.00 0.00 0.00 66 998.0
20260904104855 64 248 1.0 2.0 0.00 0.00 0.00 68 998.1
20260904104153 64 248 0.0 1.0 0.00 0.00 0.00 67 998.1
20260904103451 64 248 0.0 2.0 0.00 0.00 0.00 70 998.2
20260904103126 62 248 0.0 1.0 0.00 0.00 0.00 70 998.2
20260904102747 62 248 1.0 1.0 0.00 0.00 0.00 70 998.2
20260904102057 63 248 0.0 1.0 0.00 0.00 0.00 69 998.3
20260904102023 63 248 0.0 0.0 0.00 0.00 0.00 69 998.3
20260904101354 63 248 0.0 0.0 0.00 0.00 0.00 70 998.4
20260904100919 63 248 0.0 2.0 0.00 0.00 0.00 71 998.3
20260904100653 62 248 0.0 0.0 0.00 0.00 0.00 71 998.3
20260904100003 62 248 0.0 0.0 0.00 0.00 0.00 69 998.4
20260904095932 62 248 0.0 0.0 0.00 0.00 0.00 68 998.4
20260904095249 63 248 0.0 1.0 0.00 0.00 0.00 66 998.4
20260904094724 64 248 2.0 3.0 0.00 0.00 0.00 66 998.5
20260904094546 64 248 1.0 2.0 0.00 0.00 0.00 67 998.5
20260904093855 65 248 0.0 1.0 0.00 0.00 0.00 67 998.5
20260904093620 66 248 1.0 1.0 0.00 0.00 0.00 66 998.7
20260904093152 67 248 1.0 2.0 0.00 0.00 0.00 66 998.7
20260904092450 68 248 1.0 3.0 0.00 0.00 0.00 65 998.7
20260904091748 69 248 2.0 2.0 0.00 0.00 0.00 67 998.8
20260904091424 69 248 0.0 3.0 0.00 0.00 0.00 69 998.8
20260904091046 68 248 1.0 3.0 0.00 0.00 0.00 70 998.8
20260904090356 67 248 1.0 1.0 0.00 0.00 0.00 69 998.9
20260904090320 67 248 2.0 3.0 0.00 0.00 0.00 70 998.9
20260904085652 69 248 5.0 6.0 0.00 0.00 0.00 68 999.0
20260904085217 69 248 1.0 3.0 0.00 0.00 0.00 68 999.1
20260904084951 69 248 1.0 2.0 0.00 0.00 0.00 68 999.1
20260904084249 69 248 1.0 2.0 0.00 0.00 0.00 71 999.0
20260904084126 69 248 2.0 3.0 0.00 0.00 0.00 73 999.0
20260904083548 68 248 1.0 2.0 0.00 0.00 0.00 76 998.9
20260904083025 67 248 1.0 3.0 0.00 0.00 0.00 78 999.0
20260904082846 66 248 1.0 3.0 0.00 0.00 0.00 78 999.0
20260904082157 65 248 1.0 2.0 0.00 0.00 0.00 80 999.1
20260904081922 65 248 1.0 2.0 0.00 0.00 0.00 81 999.2
20260904081455 64 248 0.0 0.0 0.00 0.00 0.00 82 999.3
20260904080753 62 248 2.0 2.0 0.00 0.00 0.00 83 999.3
20260904080051 61 248 0.0 1.0 0.00 0.00 0.00 83 999.4
20260904075726 61 248 1.0 2.0 0.00 0.00 0.00 84 999.5
20260904075349 60 248 0.0 1.0 0.00 0.00 0.00 84 999.6
20260904074657 60 248 1.0 1.0 0.00 0.00 0.00 84 999.7
20260904074622 60 248 0.0 2.0 0.00 0.00 0.00 84 999.7
20260904073956 59 248 1.0 2.0 0.00 0.00 0.00 84 999.7
20260904073520 59 248 1.0 2.0 0.00 0.00 0.00 85 999.7
20260904073253 58 248 0.0 1.0 0.00 0.00 0.00 85 999.7
20260904072551 57 248 1.0 3.0 0.00 0.00 0.00 85 999.7
20260904072416 56 248 2.0 3.0 0.00 0.00 0.00 85 999.6
20260904071849 55 248 2.0 3.0 0.00 0.00 0.00 85 999.7
20260904071324 55 248 1.0 3.0 0.00 0.00 0.00 85 999.7
20260904071146 55 248 2.0 2.0 0.00 0.00 0.00 85 999.7
20260904070456 55 248 1.0 3.0 0.00 0.00 0.00 85 999.8
20260904070220 55 248 1.0 2.0 0.00 0.00 0.00 85 999.8
20260904065753 55 248 1.0 1.0 0.00 0.00 0.00 85 999.9
20260904065051 55 248 2.0 3.0 0.00 0.00 0.00 85 999.9
20260904064349 54 248 2.0 2.0 0.00 0.00 0.00 85 1000.0
20260904064026 53 248 2.0 3.0 0.00 0.00 0.00 85 1000.0
20260904063647 52 248 2.0 3.0 0.00 0.00 0.00 85 1000.0
20260904062956 51 248 2.0 2.0 0.00 0.00 0.00 86 1000.0
20260904062922 50 248 2.0 3.0 0.00 0.00 0.00 86 1000.0
20260904062254 48 248 2.0 3.0 0.00 0.00 0.00 86 1000.1
20260904061818 47 248 2.0 3.0 0.00 0.00 0.00 86 1000.1
20260904061551 46 248 1.0 2.0 0.00 0.00 0.00 86 1000.2
20260904060849 46 248 1.0 3.0 0.00 0.00 0.00 86 1000.2
20260904060727 46 248 0.0 2.0 0.00 0.00 0.00 86 1000.3
20260904060210 46 248 0.0 1.0 0.00 0.00 0.00 86 1000.2
20260904055622 45 248 0.0 0.0 0.00 0.00 0.00 86 1000.2
20260904055457 45 248 0.0 0.0 0.00 0.00 0.00 86 1000.3
20260904054755 45 248 0.0 0.0 0.00 0.00 0.00 86 1000.4
20260904054518 44 248 1.0 1.0 0.00 0.00 0.00 86 1000.5
20260904054051 44 248 1.0 2.0 0.00 0.00 0.00 86 1000.6
20260904053426 44 248 1.0 2.0 0.00 0.00 0.00 86 1000.6
20260904053349 44 248 1.0 2.0 0.00 0.00 0.00 86 1000.6
20260904052657 44 248 1.0 2.0 0.00 0.00 0.00 86 1000.6
20260904052322 44 248 2.0 2.0 0.00 0.00 0.00 86 1000.7
20260904051955 44 248 0.0 1.0 0.00 0.00 0.00 86 1000.7
20260904051253 44 248 2.0 2.0 0.00 0.00 0.00 86 1000.7
20260904051217 44 248 1.0 2.0 0.00 0.00 0.00 86 1000.7
20260904050551 44 248 0.0 0.0 0.00 0.00 0.00 86 1000.8
20260904050126 44 248 0.0 1.0 0.00 0.00 0.00 86 1000.8
20260904045848 44 248 1.0 2.0 0.00 0.00 0.00 85 1000.8
20260904045148 44 248 1.0 1.0 0.00 0.00 0.00 86 1000.9
20260904045025 44 248 0.0 1.0 0.00 0.00 0.00 86 1000.9
20260904044446 44 248 1.0 2.0 0.00 0.00 0.00 86 1000.9
20260904043757 43 248 2.0 3.0 0.00 0.00 0.00 86 1000.9
20260904043056 43 248 2.0 3.0 0.00 0.00 0.00 86 1001.1
20260904042354 42 248 0.0 1.0 0.00 0.00 0.00 86 1001.3
20260904041651 42 248 0.0 0.0 0.00 0.00 0.00 86 1001.4
20260904040949 42 248 0.0 0.0 0.00 0.00 0.00 86 1001.5
20260904040247 42 248 0.0 0.0 0.00 0.00 0.00 86 1001.5
20260904035556 42 248 0.0 2.0 0.00 0.00 0.00 86 1001.6
20260904034854 42 248 0.0 0.0 0.00 0.00 0.00 86 1001.6
20260904034152 42 248 0.0 0.0 0.00 0.00 0.00 86 1001.6
20260904033449 42 248 0.0 0.0 0.00 0.00 0.00 86 1001.7
20260904032747 42 248 1.0 2.0 0.00 0.00 0.00 86 1001.9
20260904032047 41 248 0.0 0.0 0.00 0.00 0.00 86 1002.0
20260904031357 41 248 1.0 1.0 0.00 0.00 0.00 86 1002.0
20260904030656 41 248 1.0 1.0 0.00 0.00 0.00 86 1002.1
20260904025954 41 248 0.0 0.0 0.00 0.00 0.00 86 1001.9
20260904025252 41 248 0.0 0.0 0.00 0.00 0.00 86 1002.0
20260904024549 41 248 0.0 0.0 0.00 0.00 0.00 86 1001.9
20260904023847 41 248 0.0 0.0 0.00 0.00 0.00 86 1002.1
20260904023156 41 248 0.0 0.0 0.00 0.00 0.00 86 1002.2
20260904022455 41 248 0.0 0.0 0.00 0.00 0.00 86 1002.3
20260904021754 41 248 0.0 0.0 0.00 0.00 0.00 86 1002.3
20260904021053 42 248 0.0 0.0 0.00 0.00 0.00 86 1002.3
20260904020351 42 248 0.0 0.0 0.00 0.00 0.00 86 1002.4
20260904015649 42 248 0.0 0.0 0.00 0.00 0.00 86 1002.4
20260904014947 43 248 1.0 2.0 0.00 0.00 0.00 86 1002.4
20260904014257 43 248 1.0 2.0 0.00 0.00 0.00 86 1002.4
20260904013554 42 248 0.0 0.0 0.00 0.00 0.00 86 1002.3
20260904012853 43 248 0.0 0.0 0.00 0.00 0.00 86 1002.5
20260904012152 43 248 0.0 0.0 0.00 0.00 0.00 86 1002.5
20260904011451 42 248 0.0 0.0 0.00 0.00 0.00 86 1002.6
20260904010749 42 248 0.0 0.0 0.00 0.00 0.00 86 1002.7
20260904010049 42 248 0.0 0.0 0.00 0.00 0.00 86 1002.7
20260904005357 43 248 0.0 0.0 0.00 0.00 0.00 86 1002.8
20260904004655 43 248 0.0 0.0 0.00 0.00 0.00 85 1002.9
20260904003952 43 248 0.0 0.0 0.00 0.00 0.00 85 1002.9
20260904003250 43 248 0.0 0.0 0.00 0.00 0.00 85 1002.9
20260904002549 43 248 0.0 0.0 0.00 0.00 0.00 85 1003.0
20260904001846 43 248 0.0 0.0 0.00 0.00 0.00 85 1003.1
20260904001157 43 248 0.0 0.0 0.00 0.00 0.00 85 1003.2
20260904000456 43 248 0.0 0.0 0.00 0.00 0.00 85 1003.1
20260903235754 43 248 0.0 0.0 0.00 0.00 0.00 85 1003.2
20260903235053 44 248 0.0 0.0 0.00 0.00 0.00 85 1003.3
20260903234351 44 248 0.0 0.0 0.00 0.00 0.00 85 1003.3
20260903233649 44 248 1.0 1.0 0.00 0.00 0.00 85 1003.3
20260903232946 44 248 0.0 1.0 0.00 0.00 0.00 85 1003.2
20260903232257 44 248 1.0 2.0 0.00 0.00 0.00 85 1003.3
20260903231555 44 248 1.0 2.0 0.00 0.00 0.00 85 1003.5
20260903230904 44 248 1.0 2.0 0.00 0.00 0.00 85 1003.4
20260903230150 44 248 0.0 1.0 0.00 0.00 0.00 85 1003.5
20260903225450 45 248 1.0 2.0 0.00 0.00 0.00 85 1003.5
20260903224748 44 248 0.0 0.0 0.00 0.00 0.00 85 1003.5
20260903224046 45 248 0.0 1.0 0.00 0.00 0.00 85 1003.6
20260903223346 45 248 1.0 1.0 0.00 0.00 0.00 85 1003.6
20260903222655 45 248 0.0 1.0 0.00 0.00 0.00 85 1003.7
20260903221953 45 248 1.0 1.0 0.00 0.00 0.00 85 1003.7
20260903221252 45 248 0.0 0.0 0.00 0.00 0.00 85 1003.8
20260903220550 45 248 0.0 0.0 0.00 0.00 0.00 85 1003.9
20260903215847 45 248 0.0 0.0 0.00 0.00 0.00 85 1003.9
20260903215156 45 248 0.0 0.0 0.00 0.00 0.00 85 1004.0
20260903214455 45 248 0.0 0.0 0.00 0.00 0.00 85 1004.0
20260903213753 45 248 0.0 0.0 0.00 0.00 0.00 85 1004.1
20260903213052 45 248 0.0 0.0 0.00 0.00 0.00 85 1004.1
20260903212350 46 248 0.0 0.0 0.00 0.00 0.00 85 1004.1
20260903211648 46 248 0.0 0.0 0.00 0.00 0.00 85 1004.1
20260903210948 46 248 0.0 0.0 0.00 0.00 0.00 85 1004.2
20260903210246 46 248 0.0 0.0 0.00 0.00 0.00 85 1004.2
20260903205556 47 248 0.0 0.0 0.00 0.00 0.00 85 1004.2
20260903204853 47 248 0.0 0.0 0.00 0.00 0.00 85 1004.2
20260903204150 47 248 1.0 0.0 0.00 0.00 0.00 85 1004.2
20260903203448 47 248 0.0 0.0 0.00 0.00 0.00 85 1004.2
20260903202757 47 248 0.0 0.0 0.00 0.00 0.00 85 1004.1
20260903202055 48 248 0.0 1.0 0.00 0.00 0.00 85 1004.1
20260903201353 48 248 0.0 1.0 0.00 0.00 0.00 85 1004.1
20260903200652 48 248 0.0 1.0 0.00 0.00 0.00 85 1004.1
20260903195951 48 248 0.0 0.0 0.00 0.00 0.00 85 1004.1
20260903195250 49 248 0.0 1.0 0.00 0.00 0.00 85 1004.1
20260903194548 49 248 0.0 1.0 0.00 0.00 0.00 85 1004.1
20260903193846 49 248 0.0 1.0 0.00 0.00 0.00 85 1004.1
20260903193157 49 248 1.0 1.0 0.00 0.00 0.00 85 1004.1
20260903192456 49 248 1.0 2.0 0.00 0.00 0.00 85 1004.1
20260903191752 49 248 1.0 1.0 0.00 0.00 0.00 85 1004.1
20260903191050 49 248 1.0 2.0 0.00 0.00 0.00 85 1004.1
20260903190349 50 248 1.0 1.0 0.00 0.00 0.00 85 1004.0
20260903185648 50 248 0.0 2.0 0.00 0.00 0.00 85 1004.1
20260903184947 50 248 0.0 0.0 0.00 0.00 0.00 85 1004.1